Regional Weather Roundup
Issued by NWS

Home | Current Version | Previous Version | Graphics & Text | Print | Product List | Glossary On
Versions: 1 2 3 4 5 6 7 8 9 10 11 12 13 14 15 16 17 18 19 20 21 22 23 24 25 26 27 28 29 30 31 32 33 34 35 36 37 38 39 40 41 42 43 44 45 46 47 48 49 50
000
ASUS43 KIND 220459
RWRIN

WEATHER ROUNDUP FOR INDIANA
NATIONAL WEATHER SERVICE INDIANAPOLIS IN
1200 AM EST MON JAN 22 2018

NOTE: "FAIR" INDICATES FEW OR NO CLOUDS BELOW 12,000 FEET WITH NO
SIGNIFICANT WEATHER AND/OR OBSTRUCTIONS TO VISIBILITY.

* - STATION DOES NOT REPORT WEATHER SUCH AS PRECIPITATION OR FOG.

+ - STATION NOT QUALITY CONTROLLED BY THE NATIONAL WEATHER SERVICE.
    USE DATA WITH CAUTION...ESPECIALLY DEWPOINT AND RELATIVE
    HUMIDITY OBSERVATIONS.

INZ001>003-010>013-019-020-220600-
NORTHWEST INDIANA

CITY           SKY/WX    TMP DP  RH WIND       PRES   REMARKS
KNOX *+        CLOUDY    43  43 100 SE7       29.90F VSB 3/4
MONTICELLO +   LGT RAIN  45  44  95 SE3       29.90F VSB 1/2

$$

LMZ046-743>745-220600-
SOUTHERN LAKE MICHIGAN

STATION/POSITION TIME  TEMP    WIND        PRES    WAVE
                       AIR SEA DIR/SP/G            HT
                 (UTC) (F)     (DEG/KT/KT) (MB)    (FT)
BURNS HARBOR     0440   47     190/  9/ 14 1012.2F
MICHIGAN CITY    0430   46     150/  9/ 11   N/A

$$

INZ004-005-014>016-021>024-220600-
NORTH CENTRAL INDIANA

CITY           SKY/WX    TMP DP  RH WIND       PRES   REMARKS
GOSHEN         CLOUDY    46  46 100 S9        29.92F FOG
PERU/GRISSOM   FOG       46  46 100 SE6       29.91F VSB 3/4
SOUTH BEND     FOG       46  45  96 S10       29.90F VSB 3/4

$$

INZ006>009-017-018-025>027-220600-
NORTHEAST INDIANA

CITY           SKY/WX    TMP DP  RH WIND       PRES   REMARKS
FORT WAYNE     DRZL/FOG  46  46 100 SE6       29.96F VSB 3/4
KENDALLVILLE + FOG       45  45 100 S7        29.95F VSB 1/2

$$

INZ028-029-035-036-043>045-051>053-220600-
WEST CENTRAL INDIANA

CITY           SKY/WX    TMP DP  RH WIND       PRES   REMARKS
GREENCASTLE +  CLOUDY    50  48  93 SE6       29.92F
LAFAYETTE      HVY RAIN  48  48 100 SE3       29.89F VSB 3/4
TERRE HAUTE    CLOUDY    48  47  96 SE7       29.90F

$$

INZ030>032-037>040-046>048-054>057-064-065-220600-
CENTRAL INDIANA

CITY           SKY/WX    TMP DP  RH WIND       PRES   REMARKS
GREENWOOD *+   CLOUDY    49  48  97 SE6       29.95F
INDIANAPOLIS   CLOUDY    49  49 100 SE7       29.94F FOG
-EAGLE CREEK   CLOUDY    50  49  96 SE6       29.93F FOG
MT COMFORT *+  CLOUDY    48  48 100 S9        29.94F
SHELBYVILLE    LGT RAIN  49  46  90 SE12      29.95F

$$

INZ033-034-041-042-049-050-058-059-220600-
EAST CENTRAL INDIANA

CITY           SKY/WX    TMP DP  RH WIND       PRES   REMARKS
MUNCIE         CLOUDY    52  49  89 S10       29.95F
RICHMOND +     CLOUDY    43  43 100 SE8       29.99F FOG

$$

INZ060-061-067>069-081>083-085>088-220600-
SOUTHWEST INDIANA

CITY           SKY/WX    TMP DP  RH WIND       PRES   REMARKS
EVANSVILLE     CLOUDY    53  48  83 SE3       29.93F
HUNTINGBURG +  CLOUDY    55  47  74 S9        29.95F

$$

INZ062-063-066-070>080-084-089>092-220600-
SOUTH CENTRAL AND SOUTHEAST INDIANA

CITY           SKY/WX    TMP DP  RH WIND       PRES   REMARKS
BLOOMINGTON    CLOUDY    51  49  92 SE8       29.93F
SEYMOUR +      CLOUDY    52  48  87 S3        29.97F

$$





USA.gov is the U.S. government's official web portal to all federal, state and local government web resources and services.